Tracking 20083 objects as of 12-Dec-2019
HD Live streaming from Space Station
objects crossing your sky now

COSMOS 2251 DEB

Track COSMOS 2251 DEB now!
10-day predictions


NORAD ID: 35584
Int'l Code: 1993-036AMB
Perigee: 730.2 km
Apogee: 923.7 km
Inclination: 74.1 °
Period: 101.3 minutes
Semi major axis: 7197 km
RCS: 0.0074 m2 (small)
Launch date: June 16, 1993
Source: Commonwealth of Independent States (former USSR) (CIS)
Launch site: PLESETSK MISSILE AND SPACE COMPLEX (PKMTR)

Note: This is SATELLITE DEBRIS
aabbcc
Your satellite tracking list
Your tracking list is empty




NASA's NSSDC Master Catalog

Two Line Element Set (TLE):
1 35584U 93036AMB 19346.24283402  .00001393  00000-0  58887-3 0  9999
2 35584  74.0876 287.6117 0134422 106.3081 255.2897 14.21652556543531
Source of the keplerian elements: AFSPC